STARLINK-1642, 46154

Orbit data source: Space-Track

STARLINK-1642, 46154 is a payload satellite owned by SpaceX/Seattle (US) in LEO that was launched on Tue, 18 Aug 2020 UTC via an FALCON 9 launch vehicle from the Air Force Eastern Test Range (AFETR). Payload-class satellites include a variety of spacecraft equipped with specific instruments for various scientific and technological missions. These include communications satellites like Starlink; space stations such as the ISS; scientific satellites like the Hubble; Earth observation satellites from companies like Planet Labs, Umbra, and HawkEye 360; GPS; miniature CubeSats for education and research; and military/defense satellites.

Loading next visibility...
Identifier
46154, 2020-057AP
Orbit
LEO
Last TLE update
18 hours ago
Origin
Manufacturer
SpaceX/Seattle
Mission
Operational Commercial Communications
Bus & Motor
STARLINK, Unknown motor
Mass
260 kg wet, ~248 kg dry
Launch date (UTC)
2020-08-18 (5 years ago)
Launch vehicle
FALCON 9
Launch site
Air Force Eastern Test Range (AFETR)
Object type
Payload
Rocket body
Debris
Shape & HBR
Box + 1 Pan, 8.86 m
Radar Cross Section
13.562 m², Large (>1 m²)

Expand to show TLE details & history

TLE from 18 hours ago
0 STARLINK-1642
1 46154U 20057AP  25191.62352196  .00000741  00000-0  68643-4 0  9999
2 46154  53.0563 313.2944 0001202  90.7042 269.4084 15.06390094269723
Epoch: 2025-07-10T14:57Z
TLE epoch observation values (Epoch: 2025-07-10T14:57:52.297Z)
Latitude
-0.00007°
Longitude
160.0393°
Altitude
548.13 km
Speed
7.589 km/s
True Right ascension
20h 53m 10s
True Declination
0° 00' 00"
Sunlit
Object was in full shadow at epoch
Visualization orbit readout
Latitude
27.57813°
Longitude
179.72667°
Altitude
548.107 km
Speed
7.592 km/s
Apparent Right ascension
01h 18m 15s
Apparent Declination
-21° 50' 02"
Sunlit
Object is in full shadow
Visualization observer readout
Local Sidereal Time
20:55:43
Azimuth
122.128° SE
Elevation
3.159°
Doppler factor
1
Orbital elements
Apogee altitude
548.345 km
Perigee altitude
546.68 km
Semi-major axis
6,925.649 km
Eccentricity
0.00012
Inclination
53.0563°
RAAN
313.2944°
Arg. of periapsis
90.7042°
True anomaly
Unknown
Mean anomaly
269.4084°
Eccentric anomaly
Unknown
Mean motion
3.76576 °/min
Orbital period
95.6 mins
BSTAR
0.000068643
Loading maneuver chart data...
Loading SW <> Apogee altitude chart data...
Loading historical data...
Loading historical data...
Loading historical data...
Loading historical data...
Loading historical data...
Loading historical data...
Loading historical data...

STARLINK-1642 Visibility forecast

Observer location: undefined°, undefined°

Span
Click to sort rows by Start time (UTC) header in descending order
Start Az.
Max El. time (UTC)
Max El. Az.
Max El.
End time (UTC)
End Az.
6 mins2025-07-11 10:14:08.856Z197.604° SSW2025-07-11 10:17:08.856Z128.333° SE33.032°2025-07-11 10:20:08.856Z67.324° ENE
6 mins2025-07-11 11:54:08.856Z276.212° WNW2025-07-11 11:56:08.856Z316.389° NNW27.708°2025-07-11 12:00:08.856Z34.687° NE
6 mins2025-07-11 16:56:08.856Z331.443° NNW2025-07-11 16:58:08.856Z20.735° NNE34.4°2025-07-11 17:02:08.856Z105.711° ESE
5 mins2025-07-11 18:36:08.856Z266.88° W2025-07-11 18:38:08.856Z220.243° SW24.029°2025-07-11 18:41:08.856Z172.497° S
|